www.pogodaiklimat.ru

Погода и климат >> Архив погоды >> Австралия >> Wyndham Aero


ПОГОДА в Wyndham Aero

  • Прогноз погоды в Wyndham Aero
  • Монитор погоды в Wyndham Aero
  • Климат города

АРХИВ ПОГОДЫ в Wyndham Aero

Время (UTC), дата Ветер
(напр.,м/с)
 
Видим.   Явления Облачность Т
(С)
Тd
(С)
f
(%)
Тe
(С)
Тes
(С)
Комфортность P
(гПа)
Po
(гПа)
Тmin
(С)
Tmax
(С)
R
(мм)
S
(см)
16 20.03 штиль 0 н/о н/о +26.7 +25.8 95 +40 +40 очень
душно
1008.1 1007.6
17 20.03 штиль 0 н/о н/о +26.3 +26.3 100 +40 +40 очень
душно
1007.9 1007.4
18 20.03 С 2 н/о н/о +26.0 +26.0 100 +39 +39 очень
душно
1007.6 1007.1
19 20.03 штиль 0 н/о н/о +26.4 +26.4 100 +40 +40 очень
душно
1007.4 1006.9
20 20.03 штиль 0 н/о н/о +26.5 +26.5 100 +40 +40 очень
душно
1007.9 1007.4
21 20.03 штиль 0 н/о н/о +26.4 +26.4 100 +40 +40 очень
душно
1008.0 1007.5
22 20.03 штиль 0 н/о н/о +26.6 +26.6 100 +41 +41 опасность
перегрева
1008.4 1007.9
23 20.03 штиль 0 н/о н/о +27.5 +26.8 96 +43 +43 опасность
перегрева
1009.0 1008.5
00 21.03 штиль 0 н/о н/о +29.4 +26.0 82 +44 +44 опасность
перегрева
1009.1 1008.6
01 21.03 З 4 н/о н/о +31.0 +25.8 74 +46 +46 опасность
перегрева
1009.0 1008.5 +26.1
02 21.03 ЮЗ 2 н/о н/о +32.4 +25.5 67 +47 +47 опасность
перегрева
1008.5 1008.0
03 21.03 З 3 н/о н/о +33.9 +24.8 59 +47 +47 опасность
перегрева
1007.9 1007.4
04 21.03 З 3 н/о н/о +34.7 +23.4 52 +45 +45 опасность
перегрева
1007.0 1006.5
05 21.03 С 3 н/о н/о +34.0 +23.4 54 +45 +45 опасность
перегрева
1006.1 1005.6
06 21.03 ЮЗ 3 н/о н/о +36.2 +22.4 45 +45 +45 опасность
перегрева
1005.4 1004.9
08 21.03 В 3 н/о н/о +35.6 +22.2 46 +44 +44 опасность
перегрева
1004.4 1003.9
07 21.03 В 2 н/о н/о +35.7 +21.9 45 +44 +44 опасность
перегрева
1004.8 1004.3
09 21.03 В 3 н/о н/о +34.1 +22.2 50 +43 +43 опасность
перегрева
1004.6 1004.1
10 21.03 С 5 н/о н/о +31.6 +23.7 63 +43 +43 опасность
перегрева
1005.7 1005.2
11 21.03 С 4 н/о н/о +30.9 +23.3 64 +41 +41 опасность
перегрева
1006.5 1006.0
12 21.03 С 3 н/о н/о +30.2 +24.8 73 +43 +43 опасность
перегрева
1008.0 1007.5
14 21.03 штиль 0 н/о н/о +29.7 +25.9 80 +44 +44 опасность
перегрева
1008.2 1007.7
13 21.03 штиль 0 н/о н/о +29.8 +25.8 79 +44 +44 опасность
перегрева
1008.3 1007.8 +36.6
15 21.03 штиль 0 н/о н/о +28.7 +26.3 87 +44 +44 опасность
перегрева
1008.3 1007.8
16 21.03 штиль 0 н/о н/о +28.0 +26.9 94 +44 +44 опасность
перегрева
1008.2 1007.7
17 21.03 штиль 0 н/о н/о +28.1 +27.8 98 +46 +46 опасность
перегрева
1007.9 1007.4
18 21.03 штиль 0 н/о н/о +27.9 +27.9 100 +46 +46 опасность
перегрева
1007.7 1007.2
20 21.03 штиль 0 н/о н/о +27.3 +27.3 100 +43 +43 опасность
перегрева
1007.9 1007.4
19 21.03 Ю 3 н/о н/о +27.9 +27.7 99 +45 +45 опасность
перегрева
1007.5 1007.0
21 21.03 штиль 0 н/о н/о +26.9 +26.9 100 +42 +42 опасность
перегрева
1008.1 1007.6
22 21.03 штиль 0 н/о н/о +27.5 +27.5 100 +44 +44 опасность
перегрева
1008.4 1007.9
23 21.03 штиль 0 н/о н/о +29.3 +26.9 87 +46 +46 опасность
перегрева
1008.8 1008.3
00 22.03 ЮЗ 2 н/о н/о +30.7 +26.2 77 +46 +46 опасность
перегрева
1009.2 1008.7
02 22.03 Ю 1 н/о н/о +34.1 +25.5 61 +49 +49 опасность
перегрева
1008.5 1008.0
01 22.03 З 2 н/о н/о +32.5 +25.6 67 +47 +47 опасность
перегрева
1009.2 1008.7 +26.7
03 22.03 С 3 н/о н/о +35.0 +25.2 57 +49 +49 опасность
перегрева
1007.9 1007.4
04 22.03 С 2 н/о н/о +35.9 +24.2 51 +48 +48 опасность
перегрева
1007.1 1006.6
05 22.03 СВ 2 н/о н/о +36.3 +23.9 49 +48 +48 опасность
перегрева
1006.6 1006.1
06 22.03 СЗ 3 н/о н/о +37.0 +23.4 46 +47 +47 опасность
перегрева
1005.7 1005.2
08 22.03 З 4 н/о н/о +30.7 +22.0 60 +39 +39 очень
душно
1005.3 1004.8
07 22.03 С 10 н/о н/о +31.8 +20.4 51 +39 +39 очень
душно
1005.7 1005.2
09 22.03 СВ 1 н/о н/о +31.6 +23.4 62 +42 +42 опасность
перегрева
1005.6 1005.1
10 22.03 штиль 0 н/о н/о +31.3 +24.2 66 +43 +43 опасность
перегрева
1006.4 1005.9
11 22.03 СВ 1 н/о н/о +31.3 +24.4 67 +44 +44 опасность
перегрева
1007.5 1007.0
12 22.03 С 2 н/о н/о +30.4 +25.0 73 +44 +44 опасность
перегрева
1008.5 1008.0
13 22.03 СЗ 2 н/о н/о +29.9 +25.4 77 +44 +44 опасность
перегрева
1009.2 1008.7 +37.4
14 22.03 штиль 0 н/о н/о +28.7 +25.9 85 +43 +43 опасность
перегрева
1009.7 1009.2
15 22.03 штиль 0 н/о н/о +29.3 +26.3 84 +45 +45 опасность
перегрева
1008.9 1008.4
16 22.03 штиль 0 н/о н/о +28.4 +26.2 88 +43 +43 опасность
перегрева
1008.4 1007.9
17 22.03 штиль 0 н/о н/о +28.1 +27.2 95 +45 +45 опасность
перегрева
1008.2 1007.7
18 22.03 штиль 0 н/о н/о +27.9 +27.4 97 +45 +45 опасность
перегрева
1007.4 1006.9
19 22.03 штиль 0 н/о н/о +28.0 +26.9 94 +44 +44 опасность
перегрева
1007.8 1007.3
20 22.03 штиль 0 н/о н/о +27.5 +26.6 95 +42 +42 опасность
перегрева
1008.1 1007.6
21 22.03 СЗ 4 н/о н/о +27.5 +26.1 92 +41 +41 опасность
перегрева
1008.7 1008.2
22 22.03 СЗ 3 н/о н/о +27.9 +26.3 91 +42 +42 опасность
перегрева
1009.1 1008.6
23 22.03 З 4 н/о н/о +30.0 +26.0 79 +45 +45 опасность
перегрева
1009.5 1009.0
00 23.03 З 6 н/о н/о +31.0 +25.6 73 +46 +46 опасность
перегрева
1009.7 1009.2
01 23.03 ЮЗ 4 н/о н/о +32.6 +25.9 68 +48 +48 опасность
перегрева
1009.7 1009.2 +27.0
02 23.03 ЮЗ 3 н/о н/о +34.0 +24.8 59 +47 +47 опасность
перегрева
1009.1 1008.6
03 23.03 С 1 н/о н/о +36.3 +24.2 50 +48 +48 опасность
перегрева
1008.6 1008.1
04 23.03 Ю 3 н/о н/о +35.6 +22.5 47 +45 +45 опасность
перегрева
1007.3 1006.8
05 23.03 В 3 н/о н/о +36.9 +21.9 42 +45 +45 опасность
перегрева
1006.8 1006.3
06 23.03 ЮВ 3 н/о н/о +37.4 +21.1 39 +44 +44 опасность
перегрева
1006.0 1005.5
07 23.03 ЮЗ 6 н/о н/о +35.4 +21.6 45 +43 +43 опасность
перегрева
1005.4 1004.9
08 23.03 ЮВ 5 н/о н/о +33.4 +22.2 52 +42 +42 опасность
перегрева
1006.1 1005.6
09 23.03 СВ 3 н/о н/о +32.8 +22.9 56 +43 +43 опасность
перегрева
1006.2 1005.7
11 23.03 В 5 н/о н/о +29.9 +23.6 69 +41 +41 опасность
перегрева
1008.1 1007.6
10 23.03 ЮВ 3 н/о н/о +30.7 +22.8 63 +41 +41 опасность
перегрева
1007.3 1006.8
12 23.03 ЮВ 3 н/о н/о +28.9 +23.3 72 +39 +39 очень
душно
1008.9 1008.4
13 23.03 В 1 н/о н/о +28.9 +24.5 77 +41 +41 опасность
перегрева
1009.3 1008.8 +38.0
14 23.03 СВ 2 н/о н/о +28.3 +24.3 79 +40 +40 очень
душно
1009.0 1008.5
15 23.03 штиль 0 н/о н/о +28.4 +24.8 81 +41 +41 опасность
перегрева
1008.5 1008.0
17 23.03 штиль 0 н/о н/о +27.8 +25.2 86 +40 +40 очень
душно
1007.5 1007.0
16 23.03 С 1 н/о н/о +27.9 +24.7 83 +40 +40 очень
душно
1008.0 1007.5
18 23.03 штиль 0 н/о н/о +27.5 +25.5 89 +40 +40 очень
душно
1007.8 1007.3
19 23.03 В 2 н/о н/о +27.5 +26.4 94 +42 +42 опасность
перегрева
1007.7 1007.2
20 23.03 С 1 н/о н/о +26.8 +26.3 97 +41 +41 опасность
перегрева
1007.8 1007.3
21 23.03 В 1 н/о н/о +26.6 +26.6 100 +41 +41 опасность
перегрева
1008.1 1007.6
23 23.03 ЮВ 2 н/о н/о +29.5 +26.3 83 +45 +45 опасность
перегрева
1009.0 1008.5
22 23.03 СВ 2 н/о н/о +27.0 +27.0 100 +42 +42 опасность
перегрева
1008.6 1008.1
00 24.03 ЮЗ 1 н/о н/о +31.5 +23.6 63 +43 +43 опасность
перегрева
1009.2 1008.7
01 24.03 СЗ 2 н/о н/о +32.7 +24.2 61 +45 +45 опасность
перегрева
1009.1 1008.6 +26.6
02 24.03 ЮЗ 1 н/о н/о +35.2 +24.5 54 +48 +48 опасность
перегрева
1008.8 1008.3
03 24.03 Ю 2 н/о н/о +35.6 +23.6 50 +46 +46 опасность
перегрева
1007.8 1007.3
05 24.03 ЮВ 3 н/о н/о +36.7 +21.3 41 +44 +44 опасность
перегрева
1005.5 1005.0
04 24.03 ЮВ 3 н/о н/о +36.5 +23.0 46 +46 +46 опасность
перегрева
1006.6 1006.1
06 24.03 ЮВ 4 н/о н/о +37.3 +20.6 38 +44 +44 опасность
перегрева
1004.9 1004.4
07 24.03 СВ 3 н/о н/о +36.6 +20.0 38 +42 +42 опасность
перегрева
1004.4 1003.9
08 24.03 СВ 9 н/о н/о +30.3 +22.5 63 +40 +40 очень
душно
1005.3 1004.8
09 24.03 В 5 н/о н/о +30.0 +24.4 72 +42 +42 опасность
перегрева
1005.4 1004.9
10 24.03 В 4 н/о н/о +29.0 +24.1 75 +40 +40 очень
душно
1005.6 1005.1
11 24.03 СЗ 2 н/о н/о +29.0 +23.4 72 +39 +39 очень
душно
1006.3 1005.8
12 24.03 С 2 н/о н/о +29.0 +25.0 79 +42 +42 опасность
перегрева
1007.6 1007.1
13 24.03 штиль 0 н/о н/о +28.6 +25.2 82 +42 +42 опасность
перегрева
1008.3 1007.8 +38.0
14 24.03 штиль 0 н/о н/о +28.1 +24.9 83 +40 +40 очень
душно
1008.4 1007.9
15 24.03 ЮВ 1 н/о н/о +28.1 +25.5 86 +41 +41 опасность
перегрева
1008.0 1007.5
16 24.03 штиль 0 н/о н/о +27.3 +25.7 91 +40 +40 очень
душно
1007.6 1007.1
17 24.03 штиль 0 н/о н/о +27.5 +26.4 94 +42 +42 опасность
перегрева
1007.2 1006.7
18 24.03 В 4 н/о н/о +27.4 +27.1 98 +43 +43 опасность
перегрева
1006.2 1005.7
19 24.03 В 3 н/о н/о +26.8 +26.3 97 +41 +41 опасность
перегрева
1005.4 1004.9
20 24.03 СВ 1 н/о н/о +26.8 +26.3 97 +41 +41 опасность
перегрева
1006.2 1005.7
21 24.03 В 3 н/о н/о +27.1 +27.1 100 +43 +43 опасность
перегрева
1007.3 1006.8
22 24.03 СВ 2 н/о н/о +27.0 +27.0 100 +42 +42 опасность
перегрева
1008.0 1007.5
23 24.03 СВ 2 н/о н/о +30.2 +25.3 75 +44 +44 опасность
перегрева
1008.5 1008.0
00 25.03 В 3 н/о н/о +31.8 +23.6 62 +43 +43 опасность
перегрева
1008.9 1008.4
01 25.03 ЮВ 4 н/о н/о +32.4 +23.4 59 +43 +43 опасность
перегрева
1008.8 1008.3 +26.4
02 25.03 Ю 3 н/о н/о +33.7 +22.5 52 +43 +43 опасность
перегрева
1008.2 1007.7
03 25.03 ЮВ 3 н/о н/о +35.2 +22.9 49 +45 +45 опасность
перегрева
1007.3 1006.8
04 25.03 СВ 1 н/о н/о +36.0 +23.2 48 +46 +46 опасность
перегрева
1005.8 1005.3
05 25.03 ЮВ 3 н/о н/о +36.3 +22.5 45 +45 +45 опасность
перегрева
1005.1 1004.6
06 25.03 СВ 10 н/о н/о +29.8 +18.9 52 +35 +35 очень
душно
1005.1 1004.6
08 25.03 ЮВ 5 н/о н/о +32.7 +20.9 50 +40 +40 очень
душно
1004.5 1004.0
07 25.03 С 6 н/о н/о +31.6 +18.9 47 +37 +37 очень
душно
1004.3 1003.8
09 25.03 В 4 н/о н/о +31.2 +22.5 60 +41 +41 опасность
перегрева
1005.2 1004.7
10 25.03 В 4 н/о н/о +29.6 +22.8 67 +39 +39 очень
душно
1005.8 1005.3
11 25.03 ЮВ 3 н/о н/о +29.3 +22.8 68 +39 +39 очень
душно
1007.2 1006.7
12 25.03 С 2 н/о н/о +28.2 +23.3 75 +38 +38 очень
душно
1007.7 1007.2
14 25.03 В 3 н/о н/о +28.0 +24.0 79 +39 +39 очень
душно
1008.1 1007.6
13 25.03 штиль 0 н/о н/о +28.5 +23.9 76 +39 +39 очень
душно
1007.7 1007.2 +37.3
15 25.03 В 4 н/о н/о +27.9 +23.9 79 +39 +39 очень
душно
1008.7 1008.2
16 25.03 В 5 н/о н/о +27.4 +24.1 82 +38 +38 очень
душно
1008.8 1008.3
17 25.03 В 6 н/о н/о +26.6 +23.1 81 +36 +36 очень
душно
1008.3 1007.8
18 25.03 В 6 н/о н/о +25.4 +23.6 90 +35 +35 очень
душно
1007.5 1007.0
20 25.03 штиль 0 н/о н/о +25.0 +24.7 98 +35 +35 очень
душно
1007.6 1007.1
19 25.03 СЗ 2 н/о {туман} н/о +25.1 +23.7 92 +34 +34 очень
душно
1007.1 1006.6
21 25.03 С 2 н/о н/о +25.0 +25.0 100 +36 +36 очень
душно
1008.2 1007.7
22 25.03 штиль 0 н/о н/о +25.3 +25.3 100 +36 +36 очень
душно
1008.6 1008.1
23 25.03 В 1 н/о н/о +28.4 +24.6 80 +40 +40 очень
душно
1009.5 1009.0
00 26.03 ЮЗ 1 н/о н/о +29.4 +24.0 73 +41 +41 опасность
перегрева
1010.0 1009.5
02 26.03 Ю 2 н/о н/о +31.9 +23.4 61 +43 +43 опасность
перегрева
1008.8 1008.3
01 26.03 штиль 0 н/о н/о +30.7 +23.4 65 +41 +41 опасность
перегрева
1009.7 1009.2 +24.7
03 26.03 Ю 1 н/о н/о +34.4 +22.8 51 +44 +44 опасность
перегрева
1007.8 1007.3
04 26.03 ЮВ 3 н/о н/о +34.8 +21.8 47 +43 +43 опасность
перегрева
1006.5 1006.0
05 26.03 СВ 2 н/о н/о +35.2 +21.8 46 +43 +43 опасность
перегрева
1005.3 1004.8
06 26.03 СВ 4 н/о н/о +34.1 +21.5 48 +42 +42 опасность
перегрева
1005.2 1004.7
08 26.03 С 3 н/о н/о +33.0 +22.1 53 +42 +42 опасность
перегрева
1005.2 1004.7
07 26.03 СВ 4 н/о н/о +33.8 +22.2 51 +43 +43 опасность
перегрева
1004.8 1004.3
09 26.03 С 3 н/о н/о +32.0 +23.8 62 +43 +43 опасность
перегрева
1005.8 1005.3
10 26.03 СВ 6 н/о н/о +29.6 +24.2 73 +41 +41 опасность
перегрева
1007.0 1006.5
11 26.03 З 1 н/о н/о +29.8 +23.7 70 +41 +41 опасность
перегрева
1008.0 1007.5
12 26.03 В 3 н/о н/о +29.6 +24.5 74 +42 +42 опасность
перегрева
1008.9 1008.4
13 26.03 В 5 н/о н/о +28.6 +24.6 79 +41 +41 опасность
перегрева
1009.6 1009.1 +35.8
14 26.03 ЮВ 4 н/о н/о +28.4 +24.8 81 +41 +41 опасность
перегрева
1010.0 1009.5
15 26.03 В 3 н/о н/о +28.4 +25.2 83 +41 +41 опасность
перегрева
1010.2 1009.7
16 26.03 В 2 н/о н/о +27.9 +25.1 85 +40 +40 очень
душно
1009.4 1008.9
17 26.03 В 4 н/о н/о +28.2 +25.8 87 +42 +42 опасность
перегрева
1009.2 1008.7
18 26.03 В 5 н/о н/о +26.2 +26.2 100 +39 +39 очень
душно
1008.7 1008.2
19 26.03 ЮВ 3 н/о в посл. час дождь {туман} н/о +26.1 +26.1 100 +39 +39 очень
душно
1008.9 1008.4
20 26.03 ЮЗ 7 н/о н/о +25.3 +25.3 100 +36 +36 очень
душно
1009.5 1009.0
21 26.03 В 3 н/о н/о +24.6 +24.6 100 +34 +34 очень
душно
1009.4 1008.9
22 26.03 В 1 н/о в посл. час дождь {туман} н/о +25.0 +25.0 100 +36 +36 очень
душно
1010.2 1009.7
23 26.03 Ю 2 н/о н/о +25.5 +25.5 100 +37 +37 очень
душно
1010.3 1009.8
00 27.03 СВ 2 н/о н/о +27.2 +27.2 100 +43 +43 опасность
перегрева
1010.7 1010.2
01 27.03 ЮВ 1 н/о {туман} н/о +29.1 +29.1 100 +51 +51 опасность
перегрева
1010.6 1010.1 +24.5
02 27.03 З 2 н/о н/о +30.0 +28.6 92 +51 +51 опасность
перегрева
1009.9 1009.4
03 27.03 З 4 н/о н/о +31.5 +27.0 77 +49 +49 опасность
перегрева
1009.0 1008.5
04 27.03 ЮЗ 2 н/о н/о +32.8 +27.1 72 +51 +51 опасность
перегрева
1008.0 1007.5
05 27.03 ЮВ 2 н/о н/о +33.5 +26.0 65 +49 +49 опасность
перегрева
1006.7 1006.2
06 27.03 ЮВ 1 н/о н/о +34.2 +25.3 60 +48 +48 опасность
перегрева
1006.0 1005.5
07 27.03 СВ 2 н/о н/о +35.0 +24.6 55 +48 +48 опасность
перегрева
1005.6 1005.1
08 27.03 В 3 н/о н/о +34.2 +24.7 58 +47 +47 опасность
перегрева
1005.6 1005.1
09 27.03 СВ 3 н/о н/о +32.7 +25.2 65 +47 +47 опасность
перегрева
1006.1 1005.6
11 27.03 С 5 н/о н/о +30.0 +25.7 78 +45 +45 опасность
перегрева
1007.6 1007.1
10 27.03 С 6 н/о н/о +30.9 +25.0 71 +44 +44 опасность
перегрева
1007.3 1006.8
12 27.03 штиль 0 н/о н/о +29.8 +26.6 83 +46 +46 опасность
перегрева
1008.6 1008.1
13 27.03 В 2 н/о н/о +29.2 +26.8 87 +46 +46 опасность
перегрева
1009.4 1008.9 +35.6
14 27.03 В 3 н/о н/о +28.7 +27.8 95 +47 +47 опасность
перегрева
1009.3 1008.8
15 27.03 ЮВ 3 н/о н/о +28.8 +28.6 99 +49 +49 опасность
перегрева
1008.9 1008.4

 

Местоположение метеостанции Wyndham Aero (Западная Австралия, Австралия): широта -15.50 долгота 128.15 высота над уровнем моря 4 м.

В архиве по умолчанию представлена погода в Wyndham Aero за последнюю неделю. Архивные данные за месяц целиком и за предыдущие месяцы, начиная с января 2011 года, Вы можете получить, выбрав интересующий диапазон дат из раскрывающегося списка и нажав кнопку "Ввод!".

Внимание! Время в таблицах - всемирное. Для получения местного времени необходимо прибавить поправку, которая в Wyndham Aero равна 8 ч.

Смотрите также архив погоды в соседних городах и на ближайших метеорологических станциях:

Погода в Kununurra (Западная Австралия, Австралия) (68 км)
Погода в Argyle Aero (Западная Австралия, Австралия) (130 км)
Погода в Port Keats Aero (Северная территория, Австралия) (203 км)
Погода в Kalumburu (Западная Австралия, Австралия) (209 км)
Погода в Truscott (Западная Австралия, Австралия) (247 км)
Погода в Troughton Island (Западная Австралия, Австралия) (290 км)
Погода в Manbulloo Csiro (Северная территория, Австралия) (291 км)
Погода в Halls Creek Airport (Западная Австралия, Австралия) (308 км)
Погода в Victoria River Downs (Северная территория, Австралия) (323 км)
Погода в Cape Don Lighthouse (Северная территория, Австралия) (375 км)

Пояснения к столбцам:

Ветер - указаны скорость ветра в м/с - средняя за 10 мин, порывы в срок и между сроками (в фигурных скобках) и направление, откуда дует ветер: С - северный, СВ - северо-восточный, В - восточный, ЮВ - юго-восточный, Ю - южный, ЮЗ - юго-западный, З - западный, СЗ - северо-западный.
Видимость - горизонтальная дальность видимости в метрах или километрах. При видимости от 1 до 10 км при отсутствии осадков обычно наблюдается дымка, при ухудшении видимости до 1 км и менее - туман. В сухую погоду видимость может ухудшаться дымом, пылью или мглою.
Явления - указаны атмосферные явления, наблюдавшиеся в срок или в последний час перед сроком; фигурными скобками обозначены явления, наблюдавшиеся между сроками (за 1-3 часа до срока); квадратными скобками обозначены град или гололедные отложения с указанием их диаметра в мм.
Облачность - указаны через наклонную черту общая и нижняя облачность в баллах и высота нижней границы облаков в метрах; квадратными скобками обозначены формы облаков: Ci - перистые, Cs - перисто-слоистые, Cc - перисто-кучевые, Ac - высококучевые, As - высокослоистые, Sc - слоисто-кучевые, Ns - слоисто-дождевые, Cu - кучевые, Cb - кучево-дождевые. Подробнее классификацию облаков см. в Атласе облаков (PDF).
T - Температура воздуха - температура, измеренная на высоте 2 м над землей.
Td - Температура точки росы - температура, при понижении до которой содержащийся в воздухе водяной пар достигнет насыщения.
f - Относительная влажность воздуха - влажноcть воздуха, измеренная на высоте 2 м над землей.
Te - Эффективная температура - температура, которую ощущает одетый по сезону человек в тени. Характеристика душности погоды. При расчете учитывается влияние влажности воздуха и скорости ветра на теплоощущения человека.
Tes - Эффективная температура на солнце - температура, которую ощущает человек, с поправкой на солнечный нагрев. Характеристика знойности погоды. Зависит от высоты солнца над горизонтом, облачности и скорости ветра. Ночью, в пасмурную погоду, а также при ветре 12 м/с и более поправка равна нулю.
P - Атмосферное давление - приведенное к уровню моря атмосферное давление.
Po - Атмосферное давление - измеренное на уровне метеостанции атмосферное давление.
Tmin - Минимальная температура - минимум температуры воздуха на высоте 2 м над землей.
Tmax - Максимальная температура - максимум температуры воздуха на высоте 2 м над землей.
R - Количество осадков - Количество выпавших осадков, мм. При наведении курсора мыши на число - период времени, за который выпало указанное количество осадков.
S - Снежный покров - Высота снежного покрова, см. При наведении курсора мыши на число - состояние снежного покрова и степень покрытия местности в баллах.